Location: Molveno
(46.1500°N, 10.9667°E)
Time: 16:33:28
(UTC+00:00)

NOSS 3-3 (C) - Pass Details

Date: 05 July 2020
Orbit: 824 x 1388 km, 63.4° (Epoch: 03 August)

Event Time Altitude Azimuth Distance (km) Brightness Sun altitude
Rises 20:26:07 0° 194° (SSW) 3,384 6.5 -10.6°
Reaches altitude 10° 20:28:34 10° 187° (S) 2,490 5.8 -10.9°
Maximum altitude 20:33:57 43° 117° (ESE) 1,264 4.2 -11.5°
Drops below altitude 10° 20:39:58 10° 48° (NE) 2,784 6.4 -12.1°
Sets 20:42:51 0° 43° (NE) 3,829 7.2 -12.4°
